Regional Weather Roundup
Issued by NWS

Home | Current Version | Previous Version | Text Only | Print | Product List | Glossary On
Versions: 1 2 3 4 5 6 7 8 9 10 11 12 13 14 15 16 17 18 19 20 21 22 23 24 25 26 27 28 29 30 31 32 33 34 35 36 37 38 39 40 41 42 43 44 45 46 47 48 49 50
755
ASUS44 KJAN 011910
RWRMS

MISSISSIPPI HOURLY WEATHER ROUNDUP
NATIONAL WEATHER SERVICE JACKSON MS
100 PM CST SUN MAR 01 2015

NOTE: "FAIR: INDICATES FEW OR NO CLOUDS BELOW 12,000 FEET WITH NO
SIGNIFICANT WEATHER AND/OR OBSTRUCTIONS TO VISIBILITY.

MSZ001>002-007>008-010>013-018>021-025>028-034>036-012000-
NORTHWEST MISSISSIPPI

CITY           SKY/WX    TMP DP  RH WIND       PRES   REMARKS
CLARKSDALE     CLOUDY    39  39 100 NW10      30.35F WCI  32
CLEVELAND      CLOUDY    40  40 100 N8        30.32F FOG
GREENWOOD        N/A    N/A N/A N/A MISG      30.31F
GREENVILLE     CLOUDY    41  39  93 N9        30.32F FOG
OLIVE BRANCH   LGT RAIN  43  43 100 CALM      30.33F FOG
OXFORD         CLOUDY    50  50 100 SE3       30.34R FOG
TUNICA         CLOUDY    39  37  93 NW7       30.35F FOG     WCI  34
$$

MSZ003>006-009-014>017-022>024-029>033-037>039-012000-
NORTHEAST MISSISSIPPI

CITY           SKY/WX    TMP DP  RH WIND       PRES   REMARKS
COLUMBUS AFB   CLOUDY    55  50  82 SE6       30.35F
CORINTH        CLOUDY    54  50  87 S7        30.32F
GOLDN TRIANGLE CLOUDY    52  48  87 SE7       30.35F FOG
STARKVILLE     CLOUDY    52  50  93 SE6       30.33F
TUPELO         LGT RAIN  52  49  89 SE3       30.33F FOG
$$

MSZ040-058-012000-
CENTRAL MISSISSIPPI

CITY           SKY/WX    TMP DP  RH WIND       PRES   REMARKS
JACKSON INTL   HVY RAIN  57  55  93 SE12      30.28F FOG
JACKSON HAWKNS HVY RAIN  57  55  93 SE13      30.27F FOG
MERIDIAN KEY   CLOUDY    56  52  86 VRB3      30.34F
MERIDIAN NAS   CLOUDY    58  51  78 SE5       30.34F
VICKSBURG      LGT RAIN  57  55  93 CALM      30.27F FOG
$$

MSZ059>079-012000-
SOUTH MISSISSIPPI

CITY           SKY/WX    TMP DP  RH WIND       PRES   REMARKS
BROOKHAVEN       N/A     59  59 100 E3        30.31F
HATTIESBURG    CLOUDY    63  56  78 SE7       30.32F
MCCOMB         CLOUDY    62  59  90 SE7       30.28F FOG
NATCHEZ        CLOUDY    61  57  88 SE8       30.28F
PINE BELT      CLOUDY    61  54  77 SE10      30.33S
$$

MSZ080>082-012000-
COASTAL MISSISSIPPI

CITY           SKY/WX    TMP DP  RH WIND       PRES   REMARKS
BAY ST LOUIS   CLOUDY    61  54  77 E8        30.31F
BILOXI         CLOUDY    58  58 100 E8        30.30F FOG
PASCAGOULA     CLOUDY    58  55  90 E7        30.32F FOG
GULFPORT       CLOUDY    59  57  93 E8        30.30F FOG
$$



USA.gov is the U.S. government's official web portal to all federal, state and local government web resources and services.